Wind_Speed
16 16 16 16 16 14 13 14 14 14 14 14 13 13 13 13 13 14 14 14 14 14 14 15 15 16 17 18 18 19 19 19 19 19 19 20 21 21 21 21 21 22 22
18 18 18 18 18 18 17 16 15 15 16 16 16 15 15 15 15 16 16 16 16 16 16 16 17 18 18 19 19 20 20 20 21 20 21 22 22 23 23 23 24 24 24
21 21 21 20 20 19 19 18 18 18 18 18 18 18 18 18 18 18 17 18 18 18 18 19 19 20 21 21 22 22 22 22 23 23 23 24 24 24 24 25 25 25 25
22 22 22 23 22 22 22 21 21 20 20 20 20 20 20 20 20 20 19 19 19 20 20 21 22 22 23 23 23 24 24 24 25 25 26 26 26 26 26 26 26 26 27
24 24 24 25 25 25 25 24 24 23 23 23 23 23 23 22 22 22 21 21 22 22 22 23 24 24 25 25 26 26 26 26 26 26 27 27 27 27 28 28 27 27 28
27 27 26 26 27 26 26 26 26 26 26 25 26 26 24 24 24 24 24 24 24 24 25 25 26 26 27 27 28 29 28 28 28 28 28 28 28 28 29 29 29 28 28
28 28 29 28 29 28 28 28 28 28 28 28 28 27 26 26 26 26 26 26 27 27 26 26 27 28 29 29 30 31 30 30 30 30 29 29 29 29 29 29 29 29 29
29 29 30 30 29 29 29 30 29 29 30 30 29 28 27 27 27 27 28 29 28 29 29 28 29 30 30 30 31 31 31 31 30 31 31 31 30 29 29 29 29 29 29
31 30 31 30 29 29 30 30 30 31 31 32 31 29 29 29 29 30 31 30 29 30 30 30 30 31 31 31 31 30 30 30 30 30 30 30 30 30 30 29 29 29 29
32 32 32 32 31 30 31 31 31 32 33 33 33 31 31 31 32 32 31 31 31 31 31 31 32 32 32 32 32 31 30 30 30 30 30 30 30 30 30 30 30 29 30
32 33 33 32 32 32 32 32 32 33 33 34 33 32 33 33 33 32 32 32 32 32 33 32 33 33 33 33 32 31 31 30 30 29 28 29 30 31 31 31 31 30 30
32 32 32 32 32 31 32 32 33 32 32 32 32 32 33 33 33 33 34 33 33 34 34 34 34 34 34 34 33 32 31 30 29 29 29 30 30 30 30 30 30 31 31
32 32 31 32 32 31 32 32 32 32 32 32 32 33 34 34 34 34 34 33 33 33 33 33 34 34 34 34 33 32 31 30 30 29 29 30 30 30 30 30 30 30 30
32 32 32 32 32 33 33 33 33 33 32 32 33 33 34 34 34 33 34 34 35 35 34 34 33 33 33 32 31 30 29 29 29 29 29 29 29 29 29 29 30 29 29
32 32 32 32 32 33 33 33 33 33 33 33 33 33 33 33 33 34 34 34 34 35 34 33 32 32 30 29 28 28 28 29 29 29 30 30 30 30 30 30 29 29 29
32 32 32 32 32 32 32 32 32 32 32 32 32 31 31 32 32 32 32 33 33 32 31 30 29 29 28 27 28 28 28 29 29 29 30 30 30 29 29 29 29 28 29
32 32 31 31 31 31 31 31 30 30 30 30 30 30 30 30 30 30 30 30 29 28 27 27 27 27 28 27 27 28 28 29 30 29 29 29 29 28 28 28 29 29 29
30 30 30 30 30 29 29 29 29 29 29 29 29 29 29 29 29 29 28 27 26 26 26 26 26 26 26 27 27 27 27 28 28 28 28 28 28 28 28 28 29 29 30
29 29 30 30 29 29 29 29 28 28 28 28 28 28 28 28 28 27 27 26 26 26 26 26 25 25 26 26 26 26 26 26 26 26 26 27 27 28 28 28 29 30 30
29 29 29 29 29 29 29 28 28 28 28 27 26 26 27 27 26 26 26 26 26 26 25 25 25 25 25 25 25 25 25 25 25 26 26 27 27 27 27 28 28 30 30
28 28 28 27 27 27 27 27 27 27 26 26 25 25 25 25 25 25 25 25 25 24 24 24 24 24 24 25 24 24 24 25 25 26 26 26 27 27 27 28 28 29 29
26 26 26 25 25 25 26 25 25 24 24 24 24 24 24 24 25 25 25 24 24 23 24 23 23 23 24 24 24 24 24 24 25 25 26 26 26 27 27 28 28 29 29
25 24 25 25 24 24 24 24 23 23 23 23 23 23 23 23 23 23 23 23 23 23 23 23 23 23 24 24 24 24 24 24 24 24 25 25 26 27 27 28 28 28 28
23 22 22 23 23 23 22 22 22 22 22 22 22 23 23 22 22 22 22 22 23 23 23 23 23 24 24 24 23 23 24 24 24 24 25 25 26 27 27 27 27 27 27
21 21 21 21 21 21 21 21 21 21 21 21 22 22 22 22 21 21 21 21 22 22 22 23 23 23 23 22 23 24 24 25 26 26 26 26 26 27 27 27 27 27 26
21 21 21 21 21 21 20 20 20 21 21 20 20 21 22 21 20 21 21 21 21 22 22 23 23 23 24 24 24 24 25 26 27 27 27 27 28 28 28 28 28 28 27
Wind_Direction
278 278 277 282 279 275 275 274 275 275 278 280 280 285 289 291 293 294 295 292 292 294 296 297 298 296 295 295 295 294 292 290 290 289 288 287 286 285 284 284 284 285 285
276 276 276 277 277 273 272 272 272 274 277 279 278 280 283 286 288 289 291 292 293 293 294 297 298 298 298 297 297 297 294 291 289 288 288 288 288 285 284 284 285 285 286
274 275 275 275 275 274 274 274 274 274 275 276 276 277 280 283 285 286 287 289 289 289 291 293 294 295 296 295 295 295 294 291 290 288 288 287 288 288 286 284 284 285 285
274 274 273 273 271 272 273 272 271 272 273 274 276 278 280 281 282 283 283 285 286 288 289 291 291 292 293 293 292 292 292 291 290 288 287 287 286 286 286 285 284 284 286
276 273 272 272 272 271 269 269 269 270 270 272 274 276 278 278 279 279 280 282 284 286 286 287 288 290 291 290 290 290 291 290 289 288 287 287 285 285 285 285 284 285 285
279 276 273 272 271 271 268 268 268 269 271 274 272 273 274 275 276 277 279 282 285 286 285 285 287 289 290 290 290 289 289 289 289 288 286 285 284 284 284 284 283 285 285
277 274 274 273 271 270 269 270 271 270 271 271 273 273 272 274 276 277 279 281 283 285 286 286 288 288 289 290 291 291 290 288 287 286 286 285 284 283 284 283 283 282 284
276 273 273 273 271 269 267 270 269 269 269 270 270 271 273 275 276 276 279 281 283 285 286 288 290 290 293 292 291 290 288 287 287 286 286 285 284 284 284 283 283 282 282
274 272 271 271 271 269 268 268 268 269 269 270 270 272 272 274 276 276 278 280 284 287 288 288 290 290 292 292 291 289 287 287 286 286 287 288 287 285 284 282 282 281 281
272 271 272 269 269 269 268 269 269 268 269 270 270 272 272 273 275 275 276 280 283 285 287 288 288 289 290 290 290 288 286 286 285 286 287 287 286 286 284 282 282 281 281
273 272 272 269 267 268 269 269 270 271 270 270 269 271 274 275 274 274 276 278 281 284 286 287 287 287 288 288 288 287 285 284 284 285 286 287 287 286 284 282 281 281 282
273 272 271 269 269 270 269 270 271 271 272 274 272 274 276 276 276 276 277 278 281 283 284 285 285 285 286 286 285 283 282 282 283 285 286 287 288 287 286 285 282 281 281
272 271 270 269 269 270 271 272 272 273 274 275 275 275 274 275 276 276 278 280 282 284 286 286 285 284 284 282 281 280 281 280 281 283 285 287 288 287 287 286 285 285 283
271 270 269 269 269 270 271 271 272 273 275 274 274 275 275 275 275 276 278 280 282 284 285 286 288 288 283 282 281 280 281 280 280 282 285 288 290 290 288 287 285 285 285
271 270 269 269 269 269 271 271 271 272 273 274 274 275 276 275 274 275 277 279 281 283 284 286 286 287 287 286 283 282 282 282 281 282 283 286 289 288 287 286 286 283 284
272 271 270 271 271 271 271 271 271 271 272 274 274 275 275 274 273 273 276 278 280 282 283 283 284 285 286 284 284 284 284 282 282 283 284 285 287 287 286 286 285 284 284
272 271 271 272 272 273 273 273 272 272 273 275 275 275 275 275 275 277 279 279 280 281 282 283 284 284 285 284 282 283 283 283 283 284 286 286 286 285 285 285 285 285 286
273 272 271 271 271 272 273 272 272 273 273 274 274 274 274 275 277 278 279 280 281 281 283 284 284 284 285 284 283 284 285 285 285 285 287 288 286 284 284 284 285 286 286
272 272 270 269 270 271 272 272 273 273 273 272 271 272 274 275 276 277 278 279 280 281 282 284 284 284 284 284 285 286 286 285 284 285 287 288 287 286 287 286 286 287 287
272 272 272 270 270 271 271 271 271 272 273 273 273 274 274 274 274 276 277 278 280 280 281 281 282 283 283 282 284 285 285 285 285 285 288 289 288 288 289 290 289 289 288
272 271 272 271 270 270 270 270 271 273 274 274 273 274 275 275 275 276 277 278 279 280 281 281 281 280 281 281 282 283 284 285 286 288 290 290 290 290 291 292 293 293 293
271 270 270 270 270 268 269 270 271 272 275 275 274 276 276 276 275 274 276 277 278 280 282 282 281 281 282 282 282 283 284 287 288 289 289 290 291 292 293 294 295 295 295
270 271 270 269 268 268 267 268 270 272 274 274 274 275 276 277 277 276 276 278 280 280 280 282 282 282 282 282 282 283 285 287 288 289 291 293 293 293 294 295 296 296 296
269 270 270 268 267 266 267 268 269 272 273 273 273 274 275 276 277 276 277 278 279 279 281 283 285 287 286 284 282 283 285 287 288 289 292 293 294 295 295 296 297 297 297
268 269 270 269 267 268 268 269 270 271 271 271 273 274 275 275 275 276 277 278 279 282 284 285 286 287 286 284 283 284 285 288 289 290 291 293 294 295 295 296 297 298 297
267 269 272 271 271 270 270 269 269 269 270 272 273 275 275 275 276 278 279 280 281 282 283 286 287 287 287 286 285 284 284 287 290 291 291 291 293 294 293 294 295 295 294
Height
5893 5893 5893 5892 5891 5890 5890 5890 5890 5890 5889 5888 5888 5887 5886 5885 5884 5883 5881 5880 5879 5878 5876 5875 5873 5872 5870 5868 5866 5865 5863 5862 5861 5859 5857 5856 5854 5853 5851 5850 5849 5847 5845
5888 5888 5887 5887 5886 5885 5884 5884 5884 5884 5884 5884 5883 5882 5882 5881 5879 5878 5877 5876 5874 5873 5872 5870 5869 5867 5865 5863 5861 5859 5857 5856 5854 5853 5852 5850 5848 5846 5845 5844 5842 5841 5839
5883 5882 5882 5881 5881 5880 5879 5879 5879 5879 5879 5878 5878 5877 5876 5875 5874 5873 5872 5871 5869 5868 5867 5865 5863 5862 5860 5858 5856 5853 5851 5849 5848 5846 5845 5843 5841 5839 5838 5837 5835 5834 5832
5876 5876 5875 5874 5874 5874 5873 5873 5873 5873 5873 5872 5872 5871 5870 5870 5868 5867 5866 5865 5863 5862 5861 5859 5857 5855 5853 5851 5849 5847 5845 5842 5840 5838 5837 5835 5834 5832 5830 5829 5828 5826 5824
5868 5868 5868 5867 5866 5866 5866 5866 5866 5866 5866 5865 5865 5864 5864 5863 5862 5861 5860 5858 5857 5856 5854 5852 5850 5848 5846 5843 5841 5839 5837 5834 5832 5830 5829 5827 5825 5824 5823 5821 5820 5818 5816
5860 5859 5859 5859 5859 5858 5858 5857 5858 5858 5858 5858 5857 5856 5856 5856 5855 5854 5853 5852 5850 5849 5847 5845 5842 5840 5838 5835 5833 5830 5828 5826 5824 5822 5821 5819 5817 5816 5814 5813 5812 5810 5809
5851 5851 5850 5850 5850 5850 5850 5849 5850 5850 5850 5850 5849 5848 5848 5848 5847 5847 5845 5844 5842 5841 5839 5836 5834 5832 5830 5827 5824 5822 5820 5817 5816 5814 5812 5811 5809 5807 5806 5804 5803 5802 5800
5842 5841 5841 5840 5840 5840 5841 5841 5841 5841 5841 5841 5840 5840 5840 5840 5839 5838 5837 5836 5834 5832 5830 5828 5826 5823 5821 5818 5815 5813 5811 5808 5806 5805 5803 5801 5800 5798 5796 5795 5794 5792 5791
5833 5833 5832 5831 5831 5831 5832 5832 5832 5832 5832 5832 5832 5832 5832 5831 5831 5830 5828 5827 5825 5823 5821 5819 5817 5815 5812 5809 5806 5804 5802 5800 5797 5795 5794 5792 5790 5789 5787 5786 5785 5783 5782
5824 5823 5823 5823 5823 5823 5823 5823 5823 5823 5822 5822 5822 5822 5822 5822 5821 5820 5819 5818 5816 5815 5812 5810 5808 5805 5803 5800 5797 5795 5793 5791 5789 5787 5785 5783 5781 5779 5778 5777 5776 5774 5773
5814 5814 5813 5813 5813 5814 5814 5814 5814 5813 5812 5812 5812 5812 5812 5811 5810 5810 5809 5808 5807 5805 5803 5801 5798 5796 5793 5791 5788 5786 5784 5782 5780 5778 5777 5775 5773 5771 5769 5767 5766 5765 5764
5805 5805 5804 5804 5804 5804 5804 5804 5804 5804 5803 5802 5801 5802 5802 5802 5801 5800 5799 5798 5797 5795 5793 5791 5788 5786 5784 5781 5779 5776 5775 5773 5771 5770 5768 5766 5764 5762 5760 5758 5757 5756 5754
5795 5795 5795 5795 5795 5794 5795 5795 5794 5794 5794 5794 5793 5793 5793 5793 5792 5791 5789 5788 5786 5785 5783 5781 5778 5776 5773 5771 5768 5766 5765 5764 5763 5761 5760 5758 5756 5754 5752 5750 5748 5747 5745
5785 5785 5785 5785 5785 5785 5785 5785 5785 5785 5785 5784 5784 5784 5783 5782 5781 5780 5779 5777 5776 5775 5773 5770 5768 5766 5763 5762 5760 5758 5756 5755 5754 5753 5751 5749 5747 5745 5743 5742 5740 5738 5737
5775 5775 5775 5776 5776 5776 5776 5775 5775 5775 5775 5775 5774 5774 5773 5772 5771 5769 5768 5767 5766 5764 5763 5761 5759 5757 5755 5753 5751 5750 5748 5746 5745 5744 5742 5740 5738 5737 5735 5733 5731 5729 5728
5765 5765 5765 5766 5765 5765 5765 5765 5765 5765 5765 5764 5764 5764 5763 5762 5761 5759 5758 5757 5756 5754 5753 5751 5750 5748 5747 5745 5743 5741 5739 5738 5736 5734 5733 5731 5729 5727 5725 5724 5722 5720 5719
5755 5755 5755 5756 5756 5756 5756 5756 5756 5756 5756 5755 5755 5755 5754 5753 5752 5750 5749 5747 5746 5745 5744 5742 5741 5739 5738 5736 5735 5733 5731 5729 5727 5725 5723 5722 5720 5718 5716 5715 5713 5711 5709
5746 5746 5746 5746 5747 5747 5747 5747 5747 5747 5747 5747 5746 5746 5745 5744 5743 5741 5740 5739 5737 5736 5735 5734 5732 5731 5730 5728 5726 5724 5722 5720 5718 5716 5715 5713 5711 5709 5707 5706 5704 5702 5700
5737 5737 5737 5737 5738 5738 5738 5738 5738 5738 5738 5738 5737 5737 5736 5735 5734 5733 5732 5730 5729 5728 5727 5725 5724 5723 5721 5719 5717 5716 5714 5712 5710 5708 5706 5704 5702 5700 5698 5697 5695 5693 5691
5728 5728 5728 5728 5729 5729 5729 5729 5729 5729 5729 5729 5729 5728 5727 5726 5726 5725 5724 5722 5721 5720 5719 5717 5716 5714 5713 5711 5709 5708 5706 5704 5702 5700 5698 5696 5694 5692 5690 5688 5686 5683 5681
5720 5720 5720 5720 5720 5720 5721 5720 5720 5721 5720 5720 5720 5719 5718 5718 5717 5717 5715 5714 5713 5712 5711 5709 5708 5707 5705 5703 5701 5700 5698 5696 5694 5692 5690 5688 5685 5683 5681 5679 5677 5674 5672
5712 5712 5712 5712 5712 5712 5712 5712 5712 5712 5712 5712 5712 5711 5711 5710 5709 5708 5708 5706 5705 5704 5703 5701 5700 5698 5697 5695 5694 5692 5690 5688 5686 5684 5682 5680 5677 5675 5673 5670 5668 5665 5663
5704 5704 5704 5704 5704 5705 5705 5705 5705 5705 5705 5704 5704 5703 5703 5702 5701 5700 5700 5699 5697 5696 5695 5693 5692 5690 5688 5687 5685 5684 5682 5680 5678 5676 5674 5672 5669 5667 5664 5662 5660 5657 5654
5697 5697 5697 5697 5697 5697 5697 5697 5697 5697 5697 5696 5696 5695 5695 5694 5693 5692 5692 5691 5690 5688 5687 5686 5684 5682 5680 5679 5677 5676 5674 5672 5670 5668 5666 5664 5661 5659 5656 5654 5651 5648 5645
5690 5691 5691 5691 5690 5690 5690 5690 5690 5690 5690 5689 5688 5688 5687 5686 5686 5685 5684 5683 5682 5680 5679 5678 5676 5674 5672 5671 5670 5668 5666 5664 5662 5660 5658 5656 5653 5651 5648 5645 5643 5640 5637
5684 5684 5684 5684 5683 5683 5683 5683 5683 5683 5683 5682 5681 5681 5680 5679 5679 5678 5676 5675 5674 5673 5671 5670 5668 5667 5665 5663 5662 5660 5658 5656 5654 5652 5649 5647 5645 5642 5639 5637 5634 5631 5629